User: anonymous   Login
Location: Doux
(49.5045°N, 4.4321°E)
Time: 05:48:56
(UTC+00:00)
Language:

NOSS 3-4 (C) - Orbit

View from above orbital plane
View from above orbital plane
View from above satellite
View from above satellite

Ground track
Ground track

The orbit data is extracted from the following two-line orbital elements,

1 31708U 07027C   25189.95209849 0.00000128  00000-0  13156-3 0    09
2 31708  63.3748 125.1519 0437346  22.7607 337.2393 13.40967371    08
Epoch (UTC): 08 July 2025 22:51:01
Eccentricity: 0.0437346
inclination: 63.3748°
perigee height: 778 km
apogee height: 1433 km
right ascension of ascending node: 125.1519°
argument of perigee: 22.7607°
revolutions per day: 13.40967371
mean anomaly at epoch: 337.2393°
orbit number at epoch: 0

The dashed part of the orbit path shows where the satellite is in the earth's shadow,  

DLR